Torna al catalogo

STARLINK-32497

AttivoComunicazioniVLEO
NORAD 62161·PAYLOAD·🇺🇸 United States

Lanciato Nov 30, 2024 da Cape Canaveral Space Force Station

Loading…

Prossimi Passaggi (prossime 24 ore)

TLE

AggiornatoSource: CelesTrak SupGP

Epoca: Sep 15, 2026, 02:17 UTC

1 62161C 24224Y   26258.09562500 -.00013468  00000+0 -48790-3 0  2582
2 62161  43.0004 171.8052 0001305 272.9910 254.4595 15.27578823    15

Traccia STARLINK-32497 in tempo reale con AllMySat

Download on the App Store